This demonstration page uses our WeatherBlox Daily Observations layout. Learn more.

Left ArrowRight Arrow

53.62937, 11.41316

Hourly Observations for November 13, 2022

Temp ( °F °C ) Dew Point ( °F °C ) Humidity (%) Winds ( mph kmh ) Pressure ( in mb ) Visibility ( mi km ) Precip ( " mm )
12:20 am 00:20 Mostly Clear 37 3 37 3 100 100 VRB 2 4 30.45 1031 2 3 0.00 0.00
12:50 am 00:50 Mostly Clear 34 1 34 1 100 100 ENE 3 6 30.45 1031 3 4 0.00 0.00
1:20 am 01:20 Mostly Clear 34 1 34 1 100 100 VRB 1 2 30.45 1031 1 1 0.00 0.00
1:50 am 01:50 Mostly Clear 34 1 34 1 100 100 Calm 30.42 1030 1 1 0.00 0.00
2:20 am 02:20 Mostly Cloudy 34 1 34 1 100 100 ENE 2 4 30.42 1030 2 4 0.00 0.00
2:50 am 02:50 Mostly Cloudy 34 1 32 0 93 93 VRB 1 2 30.42 1030 0 1 0.00 0.00
3:20 am 03:20 Mostly Cloudy 34 1 34 1 100 100 E 1 2 30.42 1030 0 1 0.00 0.00
3:50 am 03:50 Mostly Cloudy 36 2 36 2 100 100 VRB 2 4 30.42 1030 1 2 0.00 0.00
4:20 am 04:20 Mostly Cloudy 36 2 36 2 100 100 NE 2 4 30.42 1030 0 0 0.00 0.00
4:50 am 04:50 Mostly Cloudy 34 1 34 1 100 100 E 2 4 30.42 1030 0 1 0.00 0.00
5:20 am 05:20 Mostly Cloudy 34 1 34 1 100 100 E 3 6 30.39 1029 1 1 0.00 0.00
5:50 am 05:50 Mostly Cloudy 34 1 34 1 100 100 E 3 6 30.39 1029 3 4 0.00 0.00
6:20 am 06:20 Mostly Cloudy 36 2 36 2 100 100 VRB 2 4 30.39 1029 1 2 0.00 0.00
6:50 am 06:50 Partly Cloudy 36 2 36 2 100 100 VRB 2 4 30.39 1029 3 5 0.00 0.00
7:20 am 07:20 Clear 41 5 41 5 100 100 SE 3 6 30.39 1029 2 4 0.00 0.00
7:50 am 07:50 Sunny 41 5 41 5 100 100 SE 7 11 30.39 1029 4 6 0.00 0.00
8:20 am 08:20 Sunny 43 6 43 6 100 100 SSE 8 13 30.39 1029 5 8 0.00 0.00
8:50 am 08:50 Mostly Cloudy with Mist and Fog 45 7 43 6 93 93 SSE 8 13 30.39 1029 3 5 0.00 0.00
9:20 am 09:20 Cloudy with Mist and Fog 45 7 45 7 100 100 SSE 9 15 30.39 1029 2 4 0.00 0.00
9:50 am 09:50 Cloudy with Mist and Fog 45 7 45 7 100 100 SSE 9 15 30.39 1029 2 2 0.00 0.00
10:20 am 10:20 Cloudy with Mist and Fog 45 7 45 7 100 100 SSE 8 13 30.39 1029 1 2 0.00 0.00
10:50 am 10:50 Cloudy with Mist and Fog 45 7 45 7 100 100 SE 7 11 30.39 1029 2 3 0.00 0.00
11:20 am 11:20 Cloudy with Mist and Fog 45 7 45 7 100 100 SE 7 11 30.39 1029 2 4 0.00 0.00
11:50 am 11:50 Cloudy with Mist and Fog 45 7 45 7 100 100 SE 5 7 30.39 1029 3 5 0.00 0.00
12:20 pm 12:20 Cloudy 46 8 45 7 93 93 SE 7 11 30.36 1028 6 9 0.00 0.00
12:50 pm 12:50 Cloudy 46 8 45 7 93 93 ESE 7 11 30.36 1028 6 9 0.00 0.00
1:20 pm 13:20 Cloudy 46 8 45 7 93 93 ESE 6 9 30.36 1028 6 9 0.00 0.00
1:50 pm 13:50 Cloudy 48 9 45 7 87 87 ESE 6 9 30.33 1027 6 10 0.00 0.00
2:20 pm 14:20 Cloudy 48 9 45 7 87 87 ESE 6 9 30.33 1027 6 10 0.00 0.00
2:50 pm 14:50 Cloudy 48 9 45 7 87 87 SE 7 11 30.33 1027 6 10 0.00 0.00
3:20 pm 15:20 Cloudy 48 9 46 8 93 93 ESE 7 11 30.33 1027 6 9 0.00 0.00
3:50 pm 15:50 Cloudy 48 9 46 8 93 93 ESE 6 9 30.30 1026 5 8 0.00 0.00
4:20 pm 16:20 Cloudy 48 9 46 8 93 93 ESE 6 9 30.30 1026 5 8 0.00 0.00
4:50 pm 16:50 Cloudy 48 9 46 8 93 93 ESE 6 9 30.30 1026 5 8 0.00 0.00
5:20 pm 17:20 Cloudy 48 9 46 8 93 93 ESE 5 7 30.30 1026 5 8 0.00 0.00
5:50 pm 17:50 Cloudy 50 10 46 8 87 87 ESE 6 9 30.30 1026 6 9 0.00 0.00
6:20 pm 18:20 Cloudy 50 10 46 8 87 87 ESE 7 11 30.27 1025 6 10 0.00 0.00
6:50 pm 18:50 Cloudy 50 10 48 9 93 93 ESE 6 9 30.27 1025 6 10 0.00 0.00
7:20 pm 19:20 Cloudy 50 10 46 8 87 87 ESE 8 13 30.27 1025 6 10 0.00 0.00
7:50 pm 19:50 Cloudy 50 10 46 8 87 87 ESE 6 9 30.27 1025 6 10 0.00 0.00
8:20 pm 20:20 Cloudy 50 10 46 8 87 87 ESE 7 11 30.27 1025 6 10 0.00 0.00
8:50 pm 20:50 Cloudy 50 10 46 8 87 87 ESE 6 9 30.24 1024 6 10 0.00 0.00
9:20 pm 21:20 Cloudy 48 9 45 7 87 87 SE 7 11 30.24 1024 6 10 0.00 0.00
9:50 pm 21:50 Cloudy 48 9 45 7 87 87 SE 7 11 30.24 1024 6 10 0.00 0.00
10:20 pm 22:20 Cloudy 48 9 45 7 87 87 ESE 5 7 30.24 1024 6 10 0.00 0.00
10:50 pm 22:50 Cloudy 48 9 43 6 81 81 ESE 7 11 30.24 1024 6 10 0.00 0.00
11:20 pm 23:20 Cloudy 48 9 43 6 81 81 ESE 9 15 30.24 1024 6 10 0.00 0.00
11:50 pm 23:50 Cloudy 48 9 43 6 81 81 ESE 6 9 30.24 1024 6 10 0.00 0.00

Powered by AerisWeather